Погода в Краснокаменке

Россия / Республика Крым     44°55′18″N   35°05′40″E
темп.,
°C
ветер,
м/с
пор.,
м/с
влажн.,
%
обл.,
%
осадки,
мм/ч
давл.,
гПа
погр.,
м
14 мая, пт
пт1400:00+13ююз334316 0.0 100929
03:00+14юз2232100 0.0 100915
06:00+14сз114197 0.0 100911
09:00+20ююв123325 0.0 1010358
12:00+24ссв123119 0.0 1010997
15:00+24в233627 0.0 10111644
18:00+21в125152 0.0 1011382
21:00+15сз117582 0.0 101211
15 мая, сб
сб1500:00+15з117552 0.0 101311
03:00+13сз12801 0.0 101413
06:00+14сз1173100 0.0 101412
09:00+20в11495 0.0 1014538
12:00+23ююв344267 0.0 10141373
15:00+22юв3342100 0.0 10131120
18:00+21ююв2247100 0.0 1013436
21:00+16зсз115911 0.0 101311
16 мая, вс
вс1600:00+14сз227377 0.0 101216
03:00+14ссз117438 0.0 101119
06:00+14с226949 0.0 101137
09:00+19ссв375183 0.0 1010450
12:00+22ссв4652100 0.0 1009710
15:00+22ссв4758100 0.0 1007750
18:00+21св356490 0.0 1006446
21:00+17с229198 1.8 100546
17 мая, пн
пн1700:00+17ссв1289100 0.9 100431
03:00+16ююз2297100 2.4 100529
06:00+16з1293100 0.4 100429
09:00+19зсз2380100 0.6 1005396
12:00+23з236594 0.2 10061064
15:00+22зсз5663100 1.9 10071268
18:00+21зсз79615 0.1 1007753
21:00+15юз226899 0.1 101016
18 мая, вт
вт1800:00+14ююз228016 0.0 101116
03:00+14юз11802 0.0 101111
06:00+14юз11790 0.0 101111
09:00+20юв21602 0.0 1012620
12:00+23ю235275 0.0 10121530
15:00+22ююз235817 0.6 1012782
18:00+20ююз34624 0.0 1012345
21:00+15ююз33753 0.0 101350